STARLINK-35249

Last updated on Mon Oct 20 2025 00:02:08 GMT+0000 (Coordinated Universal Time)

1 65901U 25224V 25292.25002315 -.01368529 00000+0 -61758-2 0 9998 2 65901 53.1509 313.3357 0000912 89.8870 109.0596 15.86106204 3133
UTC large
Height (km)
Speed (km/s)
/
Latitude / Longitude
Inclination (degrees)
Orbital Period (minutes)
Azimuth
Elevation
Range (km)
Doppler Factor

Next 0 passes for location: London (51.5072 / 0.1276)

Sorry there are no passes over London.